TimeBST,TemperatureF,Dew PointF,Humidity,Sea Level PressureIn,VisibilityMPH,Wind Direction,Wind SpeedMPH,Gust SpeedMPH,PrecipitationIn,Events,Conditions,WindDirDegrees,DateUTC
12:20 AM,46.4,42.8,87,29.50,6.2,East,4.6,-,N/A,Rain,Light Rain,100,2012-10-04 23:20:00
12:50 AM,44.6,42.8,93,29.50,6.2,SE,4.6,-,N/A,Rain,Light Rain,130,2012-10-04 23:50:00
1:20 AM,44.6,42.8,93,29.50,6.2,ESE,5.8,-,N/A,Rain,Light Rain,120,2012-10-05 00:20:00
1:50 AM,44.6,42.8,93,29.50,6.2,SSE,4.6,-,N/A,Rain,Light Rain,160,2012-10-05 00:50:00
2:20 AM,44.6,42.8,93,29.47,6.2,SSE,3.5,-,N/A,Rain,Light Rain,150,2012-10-05 01:20:00
2:50 AM,44.6,42.8,93,29.47,6.2,NNE,3.5,-,N/A,,Mostly Cloudy,30,2012-10-05 01:50:00
3:20 AM,42.8,41.0,93,29.47,6.2,Variable,2.3,-,N/A,,Partly Cloudy,0,2012-10-05 02:20:00
3:50 AM,41.0,39.2,93,29.47,-9999.0,Variable,2.3,-,N/A,,Scattered Clouds,0,2012-10-05 02:50:00
4:20 AM,41.0,39.2,93,29.47,2.5,North,3.5,-,N/A,Fog,Patches of Fog,360,2012-10-05 03:20:00
4:50 AM,42.8,41.0,93,29.47,3.1,Calm,Calm,-,N/A,Fog,Patches of Fog,0,2012-10-05 03:50:00
5:20 AM,39.2,39.2,100,29.47,2.5,Variable,2.3,-,N/A,Fog,Patches of Fog,0,2012-10-05 04:20:00
5:50 AM,39.2,37.4,93,29.47,4.3,SW,3.5,-,N/A,Rain,Light Rain,230,2012-10-05 04:50:00
6:20 AM,41.0,39.2,93,29.47,5.0,West,3.5,-,N/A,Rain,Light Rain,260,2012-10-05 05:20:00
6:50 AM,41.0,41.0,100,29.47,5.0,Calm,Calm,-,N/A,Rain,Light Rain,0,2012-10-05 05:50:00
7:20 AM,39.2,39.2,100,29.47,5.0,WSW,3.5,-,N/A,,Mostly Cloudy,250,2012-10-05 06:20:00
7:50 AM,41.0,41.0,100,29.47,6.2,Calm,Calm,-,N/A,Fog,Scattered Clouds,0,2012-10-05 06:50:00
8:20 AM,39.2,39.2,100,29.47,6.2,NNW,2.3,-,N/A,Fog,Patches of Fog,330,2012-10-05 07:20:00
8:50 AM,41.0,41.0,100,29.50,6.2,West,4.6,-,N/A,Fog,Partly Cloudy,270,2012-10-05 07:50:00
9:20 AM,44.6,42.8,93,29.50,6.2,WSW,4.6,-,N/A,Fog,Partly Cloudy,250,2012-10-05 08:20:00
9:50 AM,46.4,44.6,93,29.53,6.2,Variable,3.5,-,N/A,,Scattered Clouds,0,2012-10-05 08:50:00
10:20 AM,48.2,44.6,87,29.53,6.2,Variable,3.5,-,N/A,,Scattered Clouds,0,2012-10-05 09:20:00
10:50 AM,50.0,44.6,82,29.53,6.2,Variable,3.5,-,N/A,,Scattered Clouds,0,2012-10-05 09:50:00
11:20 AM,50.0,44.6,82,29.56,6.2,WNW,4.6,-,N/A,,Scattered Clouds,300,2012-10-05 10:20:00
11:50 AM,50.0,44.6,82,29.56,6.2,Variable,3.5,-,N/A,,Scattered Clouds,0,2012-10-05 10:50:00
12:20 PM,51.8,44.6,76,29.56,6.2,WNW,8.1,-,N/A,,Scattered Clouds,290,2012-10-05 11:20:00
12:50 PM,53.6,44.6,72,29.59,6.2,West,8.1,-,N/A,,Scattered Clouds,260,2012-10-05 11:50:00
1:20 PM,53.6,44.6,72,29.59,6.2,WNW,8.1,-,N/A,,Scattered Clouds,290,2012-10-05 12:20:00
1:50 PM,53.6,44.6,72,29.59,6.2,NW,8.1,-,N/A,,Scattered Clouds,320,2012-10-05 12:50:00
2:20 PM,53.6,42.8,67,29.59,6.2,NW,9.2,-,N/A,,Scattered Clouds,310,2012-10-05 13:20:00
2:50 PM,53.6,42.8,67,29.59,6.2,WNW,9.2,-,N/A,,Scattered Clouds,290,2012-10-05 13:50:00
3:20 PM,51.8,42.8,71,29.62,6.2,West,6.9,-,N/A,,Scattered Clouds,280,2012-10-05 14:20:00
3:50 PM,53.6,44.6,72,29.62,6.2,West,6.9,-,N/A,,Mostly Cloudy,270,2012-10-05 14:50:00
4:20 PM,51.8,44.6,76,29.65,6.2,WNW,9.2,-,N/A,,Mostly Cloudy,290,2012-10-05 15:20:00
4:50 PM,51.8,44.6,76,29.65,6.2,WNW,5.8,-,N/A,,Mostly Cloudy,300,2012-10-05 15:50:00
5:20 PM,51.8,44.6,76,29.65,6.2,West,6.9,-,N/A,,Scattered Clouds,260,2012-10-05 16:20:00
5:50 PM,51.8,44.6,76,29.65,6.2,West,6.9,-,N/A,,Scattered Clouds,270,2012-10-05 16:50:00
6:20 PM,51.8,44.6,76,29.65,6.2,West,8.1,-,N/A,,Scattered Clouds,270,2012-10-05 17:20:00
6:50 PM,50.0,42.8,76,29.65,6.2,West,5.8,-,N/A,,Scattered Clouds,270,2012-10-05 17:50:00
7:20 PM,46.4,42.8,87,29.68,6.2,WSW,6.9,-,N/A,,Partly Cloudy,240,2012-10-05 18:20:00
7:50 PM,42.8,39.2,87,29.68,6.2,WSW,6.9,-,N/A,,Partly Cloudy,240,2012-10-05 18:50:00
8:20 PM,44.6,39.2,81,29.68,6.2,WSW,5.8,-,N/A,,Partly Cloudy,250,2012-10-05 19:20:00
8:50 PM,42.8,39.2,87,29.68,6.2,WSW,5.8,-,N/A,,Partly Cloudy,250,2012-10-05 19:50:00
9:20 PM,42.8,39.2,87,29.71,6.2,Variable,3.5,-,N/A,,Scattered Clouds,0,2012-10-05 20:20:00
9:50 PM,44.6,41.0,87,29.71,6.2,Variable,2.3,-,N/A,,Scattered Clouds,0,2012-10-05 20:50:00
10:20 PM,44.6,41.0,87,29.71,6.2,West,3.5,-,N/A,,Partly Cloudy,280,2012-10-05 21:20:00
10:50 PM,42.8,41.0,93,29.71,6.2,West,5.8,-,N/A,,Scattered Clouds,260,2012-10-05 21:50:00
11:20 PM,42.8,41.0,93,29.71,6.2,West,5.8,-,N/A,,Partly Cloudy,260,2012-10-05 22:20:00
11:50 PM,42.8,41.0,93,29.71,6.2,West,5.8,-,N/A,,Partly Cloudy,260,2012-10-05 22:50:00